Flag for Germany Weather past 2 weeks in Detmold, North Rhine-Westphalia, Germany

Now
75 °F

Passing clouds.


Feels Like: 78 °F
Forecast: 58 / 78 °F
Wind: 8 mph from Northeast

Location: Paderborn / Lippstadt

Current Time: Jul 23, 2014 at 1:00:16 PM

Latest Report: Jul 23, 2014 at 12:20 PM


Visibility: N/A

Pressure: 30.09 "Hg

Humidity: 54%

Dew point: 57 °F

Location of DetmoldLocation

Historic Weather in Detmold — Graph

°F

Detmold temperature yesterday

Maximum temperature yesterday: 79 °F (at 5:20 PM)
Minimum temperature yesterday: 63 °F (at 5:50 AM)
Average temperature yesterday: 69 °F

Past Weeks' High & Low Weather Summary

 TemperatureHumidityPressure
High88 °F (Jul 19, 1:50 PM)100% (Jul 8, 11:20 AM)30.21 "Hg (Jul 8, 11:20 AM)
Low52 °F (Jul 9, 3:50 AM)27% (Jul 19, 1:20 PM)29.65 "Hg (Jul 9, 2:50 PM)
Average67 °F73%29.96 "Hg
* Reported Jul 8 11:20 AM — Jul 23 11:20 AM, Detmold, Weather by CustomWeather, © 2014

Note: Actual official high and low records may vary slightly from our data, if they occured in-between our weather recording intervals... More about our weather records

Advertising

Detmold weather history for previous 24 hours

 ConditionsComfort  
Time TempWeatherWind HumidityBarometerVisibility
11:20 AM
Jul 23
72 °FPassing clouds.7 mph61%30.12 "HgN/A
10:50 AM72 °FSunny.6 mph65%30.12 "Hg10 mi
10:20 AM72 °FPassing clouds.5 mph61%30.12 "HgN/A
9:50 AM68 °FPassing clouds.6 mph69%30.12 "HgN/A
7:50 AM64 °FSunny.2 mph78%30.12 "Hg10 mi
7:20 AM61 °FSunny.2 mph94%30.12 "Hg10 mi
6:50 AM61 °FSunny.2 mph88%30.12 "Hg10 mi
6:20 AM61 °FClear.1 mph88%30.09 "Hg10 mi
5:50 AM61 °FClear.1 mph88%30.09 "Hg10 mi
5:20 AM61 °FClear.1 mph88%30.09 "Hg10 mi
4:50 AM61 °FClear.2 mph88%30.09 "Hg10 mi
4:20 AM61 °FClear.1 mph88%30.09 "Hg10 mi
3:50 AM61 °FClear.2 mph88%30.09 "Hg10 mi
3:20 AM64 °FClear.3 mph73%30.09 "Hg10 mi
1:20 AM68 °FClear.5 mph73%30.12 "Hg10 mi
12:50 AM68 °FPassing clouds.5 mph78%30.12 "HgN/A
6:50 PM
Jul 22
77 °FPassing clouds.3 mph54%30.07 "HgN/A
6:20 PM77 °FPassing clouds.7 mph54%30.07 "HgN/A
5:50 PM77 °FPassing clouds.7 mph51%30.07 "HgN/A
5:20 PM79 °FPassing clouds.8 mph51%30.07 "HgN/A
4:50 PM77 °FPassing clouds.7 mph54%30.07 "HgN/A
4:20 PM77 °FPassing clouds.6 mph54%30.07 "HgN/A
3:50 PM77 °FPassing clouds.8 mph54%30.07 "HgN/A
3:20 PM75 °FPassing clouds.8 mph61%30.07 "HgN/A
2:50 PM73 °FScattered clouds.7 mph65%30.07 "HgN/A
2:20 PM75 °FScattered clouds.6 mph61%30.07 "HgN/A
1:50 PM73 °FScattered clouds.7 mph65%30.07 "HgN/A
1:20 PM73 °FPassing clouds.7 mph61%30.07 "HgN/A
Weather by CustomWeather, © 2014

See weather overviewHow to use our weather pages